Location: Unspecified
(0.0000°N, 0.0000°E)
Time: 07:24:45
(UTC+00:00)

JUGNU - Pass Details

Date: 11 December 2017
Orbit: 837 x 864 km, 20.0° (Epoch: 23 January)

Event Time Altitude Azimuth Distance (km) Brightness Sun altitude
Exits shadow 03:52:51 16° 20° (NNE) 2,046 ? -27.5°
Drops below altitude 10° 03:54:32 10° 34° (NE) 2,452 ? -27.1°
Sets 03:57:39 0° 49° (NE) 3,392 ? -26.4°
